Location: Newark
(44.6768°N, 22.5302°E)
Time: 09:58:09
(UTC+00:00)

CAS-6 - Pass Details

Date: 30 June 2022
Orbit: 613 x 634 km, 97.9° (Epoch: 14 August)

Event Time Altitude Azimuth Distance (km) Brightness Sun altitude
Exits shadow 19:43:01 13° 110° (ESE) 1,809 ? -11.8°
Maximum altitude 19:45:45 22° 65° (ENE) 1,364 ? -12.1°
Drops below altitude 10° 19:49:07 10° 15° (NNE) 2,004 ? -12.5°
Sets 19:51:40 0° 0° (N) 2,912 ? -12.8°
